VKG1561 LGSA-ENGM

Flight info

Callsign VKG1561
Flight time 3h 48m
Altitude 34000
Route SOKRI UY151 VELOP DCT ATV UM749 SIGFO DCT EVIVI L863 OKANA DCT PARAK DCT TPS DCT PATAK DCT REGLI DCT GOSOT DCT SABAK DCT LUNIP
Aircraft A321/M-SDE2E3FGHIJ1RWXYZ/LB2

Departure

Time 2026-05-08 11:04
Airport Chania International Airport (LGSA)

Arrival

Time 2026-05-08 14:52
Airport Oslo-Gardermoen International Airport (ENGM)
Time Latitude Longitude Altitude Speed Heading
2026-05-08 10:54 35.53837 24.14170 498 ft 0 kts 21°
2026-05-08 10:55 35.53828 24.14165 492 ft 4 kts 21°
2026-05-08 10:55 35.53802 24.14154 493 ft 4 kts 21°
2026-05-08 10:55 35.53781 24.14143 491 ft 4 kts 41°
2026-05-08 10:55 35.53771 24.14120 489 ft 4 kts 96°
2026-05-08 10:56 35.53776 24.14095 493 ft 1 kts 111°
2026-05-08 10:56 35.53777 24.14091 492 ft 0 kts 111°
2026-05-08 10:58 35.53767 24.14123 488 ft 8 kts 111°
2026-05-08 10:58 35.53733 24.14228 493 ft 18 kts 111°
2026-05-08 10:58 35.53690 24.14357 490 ft 11 kts 122°
2026-05-08 10:59 35.53650 24.14364 489 ft 9 kts 201°
2026-05-08 10:59 35.53596 24.14342 495 ft 7 kts 184°
2026-05-08 10:59 35.53555 24.14386 494 ft 12 kts 118°
2026-05-08 10:59 35.53507 24.14532 494 ft 24 kts 112°
2026-05-08 11:00 35.53438 24.14735 493 ft 25 kts 112°
2026-05-08 11:00 35.53374 24.14936 490 ft 26 kts 111°
2026-05-08 11:00 35.53301 24.15174 489 ft 31 kts 110°
2026-05-08 11:00 35.53227 24.15418 492 ft 30 kts 110°
2026-05-08 11:01 35.53151 24.15645 494 ft 28 kts 111°
2026-05-08 11:01 35.53078 24.15860 496 ft 26 kts 112°
2026-05-08 11:01 35.53009 24.16063 495 ft 26 kts 113°
2026-05-08 11:01 35.52932 24.16297 495 ft 31 kts 111°
2026-05-08 11:02 35.52853 24.16538 495 ft 30 kts 112°
2026-05-08 11:02 35.52706 24.16885 492 ft 12 kts 193°
2026-05-08 11:02 35.52636 24.16850 498 ft 10 kts 202°
2026-05-08 11:03 35.52583 24.16804 490 ft 9 kts 238°
2026-05-08 11:03 35.52599 24.16744 496 ft 7 kts 296°
2026-05-08 11:03 35.52625 24.16669 497 ft 21 kts 292°
2026-05-08 11:03 35.52769 24.16226 487 ft 88 kts 291°
2026-05-08 11:04 35.53063 24.15315 484 ft 139 kts 291°
2026-05-08 11:04 35.53475 24.14070 618 ft 167 kts 292°
2026-05-08 11:04 35.53918 24.12799 1297 ft 158 kts 291°
2026-05-08 11:04 35.54352 24.11573 1888 ft 157 kts 293°
2026-05-08 11:05 35.54787 24.10329 2416 ft 162 kts 291°
2026-05-08 11:05 35.55220 24.08979 2636 ft 179 kts 290°
2026-05-08 11:05 35.55700 24.07467 2776 ft 200 kts 290°
2026-05-08 11:05 35.56232 24.05808 2932 ft 218 kts 290°
2026-05-08 11:06 35.56949 24.04138 3291 ft 226 kts 310°
2026-05-08 11:06 35.58263 24.03072 3774 ft 231 kts 343°
2026-05-08 11:06 35.59857 24.02953 4342 ft 233 kts
2026-05-08 11:06 35.61471 24.03208 4961 ft 234 kts
2026-05-08 11:07 35.63115 24.03471 5365 ft 248 kts
2026-05-08 11:07 35.64914 24.03661 5581 ft 270 kts 356°
2026-05-08 11:07 35.66823 24.03509 6119 ft 278 kts 354°
2026-05-08 11:07 35.68760 24.03317 6829 ft 281 kts 354°
2026-05-08 11:08 35.70706 24.03114 7528 ft 282 kts 354°
2026-05-08 11:08 35.72666 24.02907 8226 ft 283 kts 354°
2026-05-08 11:08 35.74637 24.02701 8903 ft 285 kts 354°
2026-05-08 11:08 35.76617 24.02499 9570 ft 287 kts 354°
2026-05-08 11:09 35.78612 24.02297 10213 ft 288 kts 354°
2026-05-08 11:09 35.80656 24.02085 10503 ft 305 kts 353°
2026-05-08 11:09 35.82841 24.01857 10627 ft 325 kts 353°
2026-05-08 11:09 35.85132 24.01619 10779 ft 343 kts 353°
2026-05-08 11:10 35.87563 24.01372 11220 ft 350 kts 353°
2026-05-08 11:10 35.90000 24.01128 11806 ft 353 kts 353°
2026-05-08 11:10 35.92457 24.00886 12411 ft 355 kts 353°
2026-05-08 11:10 35.94894 24.00645 13006 ft 357 kts 353°
2026-05-08 11:11 35.97384 24.00392 13605 ft 360 kts 353°
2026-05-08 11:11 35.99922 24.00131 14188 ft 363 kts 352°
2026-05-08 11:11 36.02414 23.99876 14695 ft 366 kts 352°
2026-05-08 11:11 36.04962 23.99618 15211 ft 369 kts 352°
2026-05-08 11:12 36.07538 23.99356 15705 ft 373 kts 352°
2026-05-08 11:12 36.10168 23.99088 16208 ft 376 kts 352°
2026-05-08 11:12 36.12754 23.98822 16691 ft 379 kts 352°
2026-05-08 11:12 36.15428 23.98546 17201 ft 382 kts 352°
2026-05-08 11:13 36.18056 23.98277 17676 ft 386 kts 352°
2026-05-08 11:13 36.20738 23.98005 18155 ft 389 kts 351°
2026-05-08 11:13 36.23447 23.97732 18607 ft 392 kts 351°
2026-05-08 11:13 36.26172 23.97456 19023 ft 395 kts 351°
2026-05-08 11:14 36.28920 23.97174 19441 ft 397 kts 351°
2026-05-08 11:14 36.31677 23.96889 19863 ft 399 kts 351°
2026-05-08 11:14 36.34451 23.96605 20296 ft 401 kts 351°
2026-05-08 11:14 36.37248 23.96320 20723 ft 404 kts 351°
2026-05-08 11:15 36.40051 23.96030 21150 ft 406 kts 351°
2026-05-08 11:15 36.42878 23.95743 21583 ft 408 kts 351°
2026-05-08 11:15 36.45716 23.95455 21999 ft 411 kts 351°
2026-05-08 11:15 36.48575 23.95160 22412 ft 413 kts 351°
2026-05-08 11:16 36.51439 23.94861 22817 ft 416 kts 350°
2026-05-08 11:16 36.54335 23.94559 23226 ft 418 kts 350°
2026-05-08 11:16 36.57244 23.94257 23625 ft 421 kts 350°
2026-05-08 11:16 36.60165 23.93953 23973 ft 423 kts 350°
2026-05-08 11:17 36.63102 23.93650 24315 ft 425 kts 350°
2026-05-08 11:17 36.66056 23.93346 24669 ft 426 kts 350°
2026-05-08 11:17 36.69016 23.93043 25017 ft 428 kts 350°
2026-05-08 11:17 36.71991 23.92739 25371 ft 429 kts 350°
2026-05-08 11:18 36.74971 23.92433 25720 ft 431 kts 350°
2026-05-08 11:18 36.77962 23.92124 26054 ft 432 kts 350°
2026-05-08 11:18 36.80958 23.91812 26394 ft 434 kts 350°
2026-05-08 11:18 36.83977 23.91497 26733 ft 435 kts 349°
2026-05-08 11:19 36.86999 23.91182 27055 ft 437 kts 349°
2026-05-08 11:19 36.90028 23.90864 27388 ft 438 kts 349°
2026-05-08 11:19 36.93077 23.90544 27702 ft 440 kts 349°
2026-05-08 11:19 36.96138 23.90225 28009 ft 442 kts 349°
2026-05-08 11:20 36.99203 23.89906 28312 ft 443 kts 349°
2026-05-08 11:20 37.02283 23.89586 28604 ft 445 kts 349°
2026-05-08 11:20 37.05375 23.89265 28889 ft 447 kts 349°
2026-05-08 11:20 37.08473 23.88943 29182 ft 448 kts 349°
2026-05-08 11:21 37.11583 23.88620 29478 ft 450 kts 349°
2026-05-08 11:21 37.14712 23.88293 29781 ft 451 kts 349°
2026-05-08 11:21 37.17833 23.87968 30187 ft 450 kts 349°
2026-05-08 11:21 37.20949 23.87645 30541 ft 448 kts 349°
2026-05-08 11:22 37.24045 23.87322 30907 ft 446 kts 348°
2026-05-08 11:22 37.27138 23.86999 31266 ft 444 kts 348°
2026-05-08 11:22 37.30218 23.86671 31634 ft 443 kts 348°
2026-05-08 11:22 37.33278 23.86343 31992 ft 441 kts 348°
2026-05-08 11:23 37.36339 23.86016 32354 ft 439 kts 348°
2026-05-08 11:23 37.39379 23.85694 32709 ft 438 kts 348°
2026-05-08 11:23 37.42396 23.85376 33052 ft 437 kts 348°
2026-05-08 11:23 37.45428 23.85058 33412 ft 435 kts 348°
2026-05-08 11:24 37.48437 23.84745 33756 ft 434 kts 348°
2026-05-08 11:24 37.51449 23.84429 34058 ft 434 kts 348°
2026-05-08 11:24 37.54390 23.84118 34136 ft 433 kts 348°
2026-05-08 11:25 37.60472 23.83471 34140 ft 434 kts 348°
2026-05-08 11:25 37.66491 23.82831 34138 ft 435 kts 348°
2026-05-08 11:26 37.72533 23.82188 34139 ft 436 kts 348°
2026-05-08 11:26 37.78595 23.81542 34136 ft 438 kts 348°
2026-05-08 11:27 37.84681 23.80885 34137 ft 440 kts 348°
2026-05-08 11:27 37.90787 23.80223 34139 ft 441 kts 348°
2026-05-08 11:28 37.96888 23.79379 34144 ft 441 kts 346°
2026-05-08 11:28 38.02947 23.78446 34140 ft 442 kts 346°
2026-05-08 11:29 38.09100 23.77513 34119 ft 443 kts 347°
2026-05-08 11:29 38.15243 23.76619 34122 ft 445 kts 347°
2026-05-08 11:30 38.21369 23.75744 34119 ft 446 kts 347°
2026-05-08 11:30 38.27539 23.74861 34113 ft 447 kts 347°
2026-05-08 11:31 38.33708 23.73967 34131 ft 447 kts 347°
2026-05-08 11:31 38.39906 23.73066 34110 ft 448 kts 347°
2026-05-08 11:32 38.46147 23.72161 34126 ft 451 kts 344°
2026-05-08 11:32 38.52384 23.71255 34120 ft 456 kts 344°
2026-05-08 11:33 38.58683 23.70334 34119 ft 456 kts 344°
2026-05-08 11:33 38.64992 23.69407 34115 ft 457 kts 344°
2026-05-08 11:34 38.71316 23.68476 34121 ft 457 kts 345°
2026-05-08 11:34 38.77636 23.67555 34120 ft 457 kts 345°
2026-05-08 11:35 38.83956 23.66642 34115 ft 457 kts 345°
2026-05-08 11:35 38.90262 23.65718 34114 ft 456 kts 345°
2026-05-08 11:36 38.96576 23.64830 34117 ft 458 kts 347°
2026-05-08 11:36 39.02970 23.64296 34093 ft 461 kts 349°
2026-05-08 11:37 39.09380 23.63923 34091 ft 461 kts 349°
2026-05-08 11:37 39.15767 23.63493 34087 ft 460 kts 348°
2026-05-08 11:38 39.22161 23.62992 34085 ft 459 kts 348°
2026-05-08 11:38 39.28539 23.62476 34092 ft 459 kts 348°
2026-05-08 11:39 39.34912 23.61970 34098 ft 459 kts 348°
2026-05-08 11:39 39.41302 23.61478 34108 ft 459 kts 349°
2026-05-08 11:40 39.47678 23.60992 34118 ft 459 kts 349°
2026-05-08 11:40 39.54063 23.60492 34130 ft 459 kts 349°
2026-05-08 11:41 39.60443 23.59993 34126 ft 459 kts 349°
2026-05-08 11:41 39.66820 23.59492 34126 ft 459 kts 349°
2026-05-08 11:42 39.73160 23.58991 34126 ft 460 kts 349°
2026-05-08 11:42 39.79548 23.58491 34125 ft 460 kts 349°
2026-05-08 11:43 39.85934 23.57993 34122 ft 460 kts 349°
2026-05-08 11:43 39.92327 23.57486 34123 ft 460 kts 349°
2026-05-08 11:44 39.98716 23.56982 34123 ft 460 kts 350°
2026-05-08 11:44 40.04032 23.56560 34121 ft 461 kts 350°
2026-05-08 11:45 40.11517 23.55964 34114 ft 462 kts 350°
2026-05-08 11:45 40.16856 23.55540 34117 ft 462 kts 350°
2026-05-08 11:46 40.23269 23.55036 34118 ft 462 kts 351°
2026-05-08 11:46 40.29694 23.54521 34116 ft 463 kts 351°
2026-05-08 11:47 40.36111 23.54009 34122 ft 463 kts 351°
2026-05-08 11:47 40.42560 23.53498 34119 ft 463 kts 351°
2026-05-08 11:48 40.49000 23.52984 34124 ft 464 kts 351°
2026-05-08 11:48 40.55438 23.52460 34120 ft 464 kts 351°
2026-05-08 11:49 40.61880 23.51935 34118 ft 464 kts 352°
2026-05-08 11:49 40.68556 23.51401 34119 ft 464 kts 352°
2026-05-08 11:50 40.74999 23.50886 34116 ft 464 kts 352°
2026-05-08 11:50 40.81450 23.50363 34107 ft 464 kts 352°
2026-05-08 11:51 40.87903 23.49833 34124 ft 464 kts 352°
2026-05-08 11:51 40.94344 23.49308 34116 ft 464 kts 352°
2026-05-08 11:52 41.00790 23.48786 34117 ft 464 kts 352°
2026-05-08 11:52 41.07232 23.48263 34116 ft 464 kts 352°
2026-05-08 11:53 41.13670 23.47736 34110 ft 463 kts 353°
2026-05-08 11:53 41.20090 23.47209 34108 ft 463 kts 353°
2026-05-08 11:54 41.26537 23.46691 34114 ft 463 kts 353°
2026-05-08 11:54 41.32972 23.46165 34119 ft 463 kts 353°
2026-05-08 11:55 41.39355 23.45282 34114 ft 459 kts 343°
2026-05-08 11:55 41.45221 23.42330 34113 ft 452 kts 330°
2026-05-08 11:56 41.50919 23.38605 34114 ft 453 kts 330°
2026-05-08 11:56 41.56561 23.34937 34112 ft 454 kts 330°
2026-05-08 11:57 41.62269 23.31210 34117 ft 455 kts 330°
2026-05-08 11:57 41.67953 23.27489 34110 ft 455 kts 330°
2026-05-08 11:58 41.73640 23.23749 34111 ft 456 kts 330°
2026-05-08 11:58 41.79293 23.20025 34110 ft 456 kts 331°
2026-05-08 11:59 41.87836 23.14392 34103 ft 457 kts 331°
2026-05-08 11:59 41.93542 23.10615 34103 ft 457 kts 331°
2026-05-08 12:00 41.99252 23.06822 34092 ft 458 kts 332°
2026-05-08 12:00 42.04961 23.03033 34093 ft 458 kts 332°
2026-05-08 12:01 42.10692 22.99223 34087 ft 459 kts 332°
2026-05-08 12:01 42.16416 22.95407 34086 ft 460 kts 332°
2026-05-08 12:02 42.22154 22.91568 34081 ft 461 kts 332°
2026-05-08 12:02 42.27900 22.87716 34085 ft 461 kts 331°
2026-05-08 12:03 42.33650 22.83858 34070 ft 461 kts 331°
2026-05-08 12:03 42.39390 22.80011 34072 ft 461 kts 331°
2026-05-08 12:04 42.45144 22.76146 34074 ft 461 kts 331°
2026-05-08 12:04 42.50893 22.72257 34060 ft 461 kts 331°
2026-05-08 12:05 42.56637 22.68373 34071 ft 461 kts 331°
2026-05-08 12:05 42.62368 22.64483 34057 ft 461 kts 331°
2026-05-08 12:06 42.68103 22.60586 34080 ft 461 kts 331°
2026-05-08 12:06 42.73840 22.56690 34076 ft 460 kts 331°
2026-05-08 12:07 42.79545 22.52806 34059 ft 459 kts 331°
2026-05-08 12:07 42.85215 22.48926 34054 ft 458 kts 331°
2026-05-08 12:08 42.90906 22.45040 34057 ft 457 kts 331°
2026-05-08 12:08 42.96586 22.41181 34055 ft 456 kts 331°
2026-05-08 12:09 43.02254 22.37321 34049 ft 455 kts 331°
2026-05-08 12:09 43.07925 22.33444 34047 ft 456 kts 331°
2026-05-08 12:10 43.13602 22.29557 34043 ft 457 kts 331°
2026-05-08 12:10 43.19290 22.25658 34040 ft 457 kts 331°
2026-05-08 12:11 43.24971 22.21749 34040 ft 457 kts 330°
2026-05-08 12:11 43.30655 22.17832 34035 ft 457 kts 331°
2026-05-08 12:12 43.36315 22.13918 34032 ft 455 kts 331°
2026-05-08 12:12 43.41973 22.10002 34033 ft 454 kts 331°
2026-05-08 12:13 43.47613 22.06094 34028 ft 453 kts 331°
2026-05-08 12:13 43.53225 22.02194 34032 ft 452 kts 331°
2026-05-08 12:14 43.58839 21.98279 34030 ft 452 kts 331°
2026-05-08 12:14 43.64445 21.94369 34030 ft 451 kts 330°
2026-05-08 12:15 43.70052 21.90452 34030 ft 452 kts 330°
2026-05-08 12:15 43.75662 21.86521 34026 ft 452 kts 330°
2026-05-08 12:16 43.81271 21.82568 34026 ft 453 kts 330°
2026-05-08 12:16 43.86893 21.78601 34030 ft 453 kts 330°
2026-05-08 12:17 43.91566 21.75308 34032 ft 453 kts 330°
2026-05-08 12:17 43.97188 21.71341 34039 ft 454 kts 330°
2026-05-08 12:18 44.02812 21.67367 34023 ft 454 kts 329°
2026-05-08 12:18 44.08444 21.63374 34037 ft 454 kts 329°
2026-05-08 12:19 44.14064 21.59364 34036 ft 455 kts 329°
2026-05-08 12:19 44.19706 21.55343 34034 ft 456 kts 329°
2026-05-08 12:20 44.25357 21.51310 34035 ft 456 kts 329°
2026-05-08 12:20 44.30997 21.47264 34035 ft 456 kts 329°
2026-05-08 12:21 44.36633 21.43221 34038 ft 456 kts 329°
2026-05-08 12:21 44.42277 21.39173 34036 ft 456 kts 329°
2026-05-08 12:22 44.47918 21.35112 34034 ft 455 kts 328°
2026-05-08 12:22 44.53559 21.31038 34035 ft 455 kts 328°
2026-05-08 12:23 44.59180 21.26970 34033 ft 455 kts 328°
2026-05-08 12:23 44.64799 21.22891 34038 ft 454 kts 328°
2026-05-08 12:24 44.70414 21.18809 34040 ft 454 kts 328°
2026-05-08 12:24 44.76014 21.14734 34036 ft 454 kts 328°
2026-05-08 12:25 44.81617 21.10640 34038 ft 453 kts 328°
2026-05-08 12:25 44.87184 21.06566 34040 ft 453 kts 328°
2026-05-08 12:26 44.92813 21.02436 34041 ft 453 kts 328°
2026-05-08 12:26 44.98344 20.98378 34041 ft 453 kts 328°
2026-05-08 12:27 45.03945 20.94256 34040 ft 452 kts 328°
2026-05-08 12:27 45.09524 20.90136 34039 ft 452 kts 327°
2026-05-08 12:28 45.15089 20.86009 34041 ft 452 kts 327°
2026-05-08 12:28 45.20662 20.81871 34042 ft 451 kts 327°
2026-05-08 12:29 45.26224 20.77736 34049 ft 451 kts 327°
2026-05-08 12:29 45.31767 20.73607 34049 ft 450 kts 327°
2026-05-08 12:30 45.37306 20.69479 34046 ft 449 kts 327°
2026-05-08 12:30 45.42840 20.65343 34048 ft 449 kts 327°
2026-05-08 12:31 45.48364 20.61203 34047 ft 448 kts 327°
2026-05-08 12:31 45.53875 20.57051 34041 ft 448 kts 327°
2026-05-08 12:32 45.59381 20.52905 34044 ft 447 kts 327°
2026-05-08 12:32 45.64882 20.48757 34051 ft 447 kts 327°
2026-05-08 12:33 45.70374 20.44601 34045 ft 446 kts 327°
2026-05-08 12:33 45.75856 20.40443 34059 ft 446 kts 327°
2026-05-08 12:34 45.81339 20.36283 34057 ft 445 kts 327°
2026-05-08 12:34 45.86801 20.32122 34059 ft 444 kts 327°
2026-05-08 12:35 45.92238 20.27959 34059 ft 443 kts 327°
2026-05-08 12:35 45.97691 20.23794 34065 ft 442 kts 327°
2026-05-08 12:36 46.03115 20.19638 34064 ft 441 kts 327°
2026-05-08 12:36 46.08516 20.15485 34063 ft 440 kts 326°
2026-05-08 12:37 46.14180 20.11981 34068 ft 446 kts 335°
2026-05-08 12:37 46.19990 20.09051 34065 ft 445 kts 335°
2026-05-08 12:38 46.25821 20.06093 34069 ft 444 kts 335°
2026-05-08 12:38 46.31629 20.03135 34065 ft 443 kts 335°
2026-05-08 12:39 46.37438 20.00172 34413 ft 442 kts 335°
2026-05-08 12:39 46.40357 19.98685 34683 ft 442 kts 335°
2026-05-08 12:39 46.43251 19.97211 34939 ft 442 kts 335°
2026-05-08 12:40 46.46154 19.95733 35179 ft 442 kts 335°
2026-05-08 12:40 46.49056 19.94255 35413 ft 442 kts 335°
2026-05-08 12:40 46.51955 19.92773 35653 ft 442 kts 335°
2026-05-08 12:40 46.54849 19.91290 35881 ft 442 kts 335°
2026-05-08 12:41 46.57751 19.89801 36033 ft 442 kts 335°
2026-05-08 12:41 46.60658 19.88309 36072 ft 442 kts 335°
2026-05-08 12:41 46.66426 19.85347 36064 ft 440 kts 334°
2026-05-08 12:42 46.72211 19.82367 36061 ft 440 kts 334°
2026-05-08 12:42 46.77983 19.79389 36061 ft 439 kts 334°
2026-05-08 12:43 46.83742 19.76402 36060 ft 439 kts 334°
2026-05-08 12:43 46.89490 19.73421 36064 ft 439 kts 334°
2026-05-08 12:44 46.95239 19.70435 36068 ft 438 kts 334°
2026-05-08 12:44 47.00971 19.67449 36071 ft 438 kts 334°
2026-05-08 12:45 47.06723 19.64439 36070 ft 438 kts 334°
2026-05-08 12:45 47.12457 19.61435 36069 ft 438 kts 334°
2026-05-08 12:46 47.18189 19.58440 36069 ft 437 kts 334°
2026-05-08 12:46 47.23916 19.55423 36066 ft 437 kts 334°
2026-05-08 12:47 47.29630 19.52395 36070 ft 436 kts 334°
2026-05-08 12:47 47.35346 19.49378 36073 ft 436 kts 334°
2026-05-08 12:48 47.41050 19.46363 36074 ft 435 kts 334°
2026-05-08 12:48 47.46747 19.43339 36071 ft 435 kts 334°
2026-05-08 12:49 47.52441 19.40313 36074 ft 435 kts 334°
2026-05-08 12:49 47.58133 19.37282 36079 ft 434 kts 334°
2026-05-08 12:50 47.63817 19.34236 36058 ft 434 kts 334°
2026-05-08 12:50 47.69489 19.31195 36054 ft 434 kts 334°
2026-05-08 12:51 47.77961 19.26650 36049 ft 433 kts 334°
2026-05-08 12:52 47.83632 19.23586 36046 ft 433 kts 334°
2026-05-08 12:52 47.92129 19.18992 36042 ft 433 kts 334°
2026-05-08 12:53 47.97792 19.15923 36041 ft 433 kts 334°
2026-05-08 12:53 48.03459 19.12843 36043 ft 433 kts 334°
2026-05-08 12:54 48.09116 19.09764 36040 ft 433 kts 334°
2026-05-08 12:54 48.14782 19.06675 36040 ft 433 kts 334°
2026-05-08 12:55 48.20448 19.03577 36039 ft 433 kts 334°
2026-05-08 12:55 48.26108 19.00472 36035 ft 433 kts 334°
2026-05-08 12:56 48.31767 18.97359 36034 ft 433 kts 334°
2026-05-08 12:56 48.37434 18.94241 36031 ft 434 kts 334°
2026-05-08 12:57 48.43103 18.91108 36031 ft 434 kts 334°
2026-05-08 12:57 48.48765 18.87967 36026 ft 434 kts 334°
2026-05-08 12:58 48.54433 18.84819 36027 ft 434 kts 334°
2026-05-08 12:58 48.60095 18.81673 36030 ft 434 kts 334°
2026-05-08 12:59 48.65772 18.78511 36033 ft 434 kts 334°
2026-05-08 12:59 48.71443 18.75336 36030 ft 435 kts 334°
2026-05-08 13:00 48.77114 18.72161 36031 ft 435 kts 334°
2026-05-08 13:00 48.82793 18.68982 36045 ft 435 kts 334°
2026-05-08 13:01 48.88476 18.65775 36041 ft 435 kts 334°
2026-05-08 13:01 48.94107 18.62582 36046 ft 436 kts 334°
2026-05-08 13:02 48.99834 18.59339 36056 ft 436 kts 334°
2026-05-08 13:02 49.04559 18.56659 36057 ft 436 kts 334°
2026-05-08 13:03 49.10255 18.53427 36054 ft 437 kts 334°
2026-05-08 13:03 49.16876 18.49663 36049 ft 437 kts 334°
2026-05-08 13:04 49.21646 18.46940 36054 ft 437 kts 334°
2026-05-08 13:04 49.27336 18.43678 36059 ft 436 kts 334°
2026-05-08 13:05 49.33023 18.40413 36065 ft 436 kts 334°
2026-05-08 13:05 49.38708 18.37151 36074 ft 436 kts 335°
2026-05-08 13:06 49.44390 18.33877 36089 ft 436 kts 334°
2026-05-08 13:06 49.50024 18.30609 36125 ft 436 kts 334°
2026-05-08 13:07 49.55711 18.27309 36135 ft 436 kts 334°
2026-05-08 13:07 49.61379 18.24016 36144 ft 435 kts 334°
2026-05-08 13:08 49.67046 18.20713 36146 ft 435 kts 334°
2026-05-08 13:08 49.72706 18.17404 36145 ft 435 kts 334°
2026-05-08 13:09 49.78370 18.14084 36144 ft 435 kts 334°
2026-05-08 13:09 49.84029 18.10766 36141 ft 435 kts 334°
2026-05-08 13:10 49.89679 18.07452 36139 ft 435 kts 334°
2026-05-08 13:10 49.95338 18.04119 36137 ft 435 kts 334°
2026-05-08 13:11 50.00986 18.00766 36137 ft 435 kts 334°
2026-05-08 13:11 50.06641 17.97420 36136 ft 435 kts 334°
2026-05-08 13:12 50.12317 17.94099 36140 ft 435 kts 334°
2026-05-08 13:12 50.17986 17.90785 36139 ft 435 kts 334°
2026-05-08 13:13 50.23647 17.87445 36138 ft 435 kts 334°
2026-05-08 13:13 50.29305 17.84090 36144 ft 435 kts 334°
2026-05-08 13:14 50.34977 17.80722 36128 ft 435 kts 335°
2026-05-08 13:14 50.40602 17.77382 36132 ft 435 kts 335°
2026-05-08 13:15 50.46273 17.74003 36141 ft 436 kts 334°
2026-05-08 13:15 50.51938 17.70610 36139 ft 436 kts 334°
2026-05-08 13:16 50.57602 17.67218 36137 ft 436 kts 335°
2026-05-08 13:16 50.63271 17.63822 36140 ft 436 kts 335°
2026-05-08 13:17 50.68938 17.60407 36139 ft 436 kts 335°
2026-05-08 13:17 50.74640 17.56957 36142 ft 436 kts 335°
2026-05-08 13:18 50.80266 17.53552 36140 ft 436 kts 335°
2026-05-08 13:18 50.85935 17.50114 36138 ft 436 kts 335°
2026-05-08 13:19 50.91600 17.46669 36141 ft 436 kts 335°
2026-05-08 13:19 50.97272 17.43216 36138 ft 437 kts 335°
2026-05-08 13:20 51.02937 17.39748 36144 ft 437 kts 335°
2026-05-08 13:20 51.08604 17.36264 36148 ft 437 kts 335°
2026-05-08 13:21 51.14288 17.32773 36145 ft 437 kts 335°
2026-05-08 13:21 51.19958 17.29280 36151 ft 437 kts 335°
2026-05-08 13:22 51.25637 17.25767 36147 ft 438 kts 335°
2026-05-08 13:22 51.31316 17.22256 36154 ft 438 kts 335°
2026-05-08 13:23 51.36992 17.18727 36154 ft 438 kts 335°
2026-05-08 13:23 51.42670 17.15182 36144 ft 438 kts 335°
2026-05-08 13:24 51.48347 17.11633 36152 ft 438 kts 335°
2026-05-08 13:24 51.54029 17.08073 36147 ft 438 kts 335°
2026-05-08 13:25 51.59709 17.04510 36158 ft 438 kts 335°
2026-05-08 13:25 51.65392 17.00930 36150 ft 439 kts 335°
2026-05-08 13:26 51.71070 16.97338 36148 ft 439 kts 335°
2026-05-08 13:26 51.76756 16.93739 36150 ft 439 kts 335°
2026-05-08 13:27 51.82439 16.90138 36153 ft 439 kts 335°
2026-05-08 13:27 51.88091 16.86545 36158 ft 439 kts 335°
2026-05-08 13:28 51.93780 16.82909 36156 ft 439 kts 335°
2026-05-08 13:28 51.99463 16.79263 36159 ft 439 kts 335°
2026-05-08 13:29 52.05146 16.75610 36162 ft 440 kts 335°
2026-05-08 13:29 52.10838 16.71940 36163 ft 440 kts 335°
2026-05-08 13:30 52.16535 16.68277 36168 ft 440 kts 335°
2026-05-08 13:30 52.22227 16.64609 36175 ft 440 kts 335°
2026-05-08 13:31 52.27920 16.60912 36176 ft 440 kts 335°
2026-05-08 13:31 52.33602 16.57197 36180 ft 440 kts 335°
2026-05-08 13:32 52.39290 16.53463 36178 ft 440 kts 335°
2026-05-08 13:32 52.44983 16.49750 36176 ft 441 kts 335°
2026-05-08 13:33 52.50679 16.46019 36174 ft 441 kts 335°
2026-05-08 13:33 52.56372 16.42269 36173 ft 441 kts 335°
2026-05-08 13:34 52.62062 16.38504 36171 ft 441 kts 335°
2026-05-08 13:34 52.67756 16.34749 36171 ft 441 kts 335°
2026-05-08 13:35 52.73448 16.30976 36173 ft 441 kts 335°
2026-05-08 13:35 52.79136 16.27186 36168 ft 441 kts 335°
2026-05-08 13:36 52.84788 16.23411 36169 ft 441 kts 335°
2026-05-08 13:36 52.90479 16.19599 36169 ft 441 kts 335°
2026-05-08 13:37 52.96173 16.15780 36168 ft 441 kts 335°
2026-05-08 13:37 53.01863 16.11944 36172 ft 442 kts 335°
2026-05-08 13:38 53.07551 16.08098 36175 ft 442 kts 335°
2026-05-08 13:38 53.13251 16.04236 36174 ft 442 kts 335°
2026-05-08 13:39 53.18948 16.00370 36178 ft 442 kts 335°
2026-05-08 13:39 53.24652 15.96500 36178 ft 442 kts 335°
2026-05-08 13:40 53.30356 15.92618 36177 ft 443 kts 335°
2026-05-08 13:40 53.36053 15.88714 36179 ft 443 kts 335°
2026-05-08 13:41 53.41752 15.84791 36182 ft 443 kts 335°
2026-05-08 13:41 53.47453 15.80861 36185 ft 443 kts 335°
2026-05-08 13:42 53.53145 15.76917 36181 ft 443 kts 335°
2026-05-08 13:42 53.58852 15.72962 36187 ft 443 kts 335°
2026-05-08 13:43 53.64562 15.69001 36192 ft 444 kts 335°
2026-05-08 13:43 53.70262 15.65026 36194 ft 444 kts 335°
2026-05-08 13:44 53.75933 15.61070 36191 ft 444 kts 335°
2026-05-08 13:44 53.81637 15.57069 36200 ft 444 kts 335°
2026-05-08 13:45 53.87344 15.53060 36202 ft 444 kts 335°
2026-05-08 13:45 53.93050 15.49042 36208 ft 444 kts 335°
2026-05-08 13:46 53.98764 15.45000 36213 ft 444 kts 335°
2026-05-08 13:46 54.04471 15.40949 36219 ft 444 kts 335°
2026-05-08 13:47 54.10182 15.36887 36220 ft 445 kts 335°
2026-05-08 13:47 54.15882 15.32803 36222 ft 445 kts 335°
2026-05-08 13:48 54.21590 15.28708 36231 ft 445 kts 335°
2026-05-08 13:48 54.27301 15.24616 36234 ft 445 kts 335°
2026-05-08 13:49 54.33010 15.20505 36231 ft 445 kts 335°
2026-05-08 13:49 54.38723 15.16378 36237 ft 445 kts 335°
2026-05-08 13:50 54.44435 15.12247 36239 ft 446 kts 335°
2026-05-08 13:50 54.50147 15.08095 36239 ft 446 kts 335°
2026-05-08 13:51 54.54896 15.04628 36244 ft 446 kts 335°
2026-05-08 13:51 54.60612 15.00454 36245 ft 446 kts 335°
2026-05-08 13:52 54.66329 14.96266 36243 ft 446 kts 335°
2026-05-08 13:52 54.72047 14.92053 36252 ft 447 kts 335°
2026-05-08 13:53 54.77760 14.87836 36253 ft 447 kts 335°
2026-05-08 13:53 54.83433 14.83483 36257 ft 446 kts 333°
2026-05-08 13:54 54.88998 14.78674 36263 ft 446 kts 331°
2026-05-08 13:54 54.94511 14.73725 36265 ft 446 kts 331°
2026-05-08 13:55 55.00049 14.68830 36264 ft 446 kts 331°
2026-05-08 13:56 55.08381 14.61577 36265 ft 447 kts 332°
2026-05-08 13:56 55.13940 14.56709 36264 ft 447 kts 332°
2026-05-08 13:57 55.19493 14.51829 36267 ft 447 kts 332°
2026-05-08 13:57 55.25046 14.46921 36273 ft 447 kts 332°
2026-05-08 13:58 55.30602 14.41996 36274 ft 447 kts 332°
2026-05-08 13:58 55.36161 14.37070 36274 ft 448 kts 332°
2026-05-08 13:59 55.41716 14.32120 36277 ft 448 kts 332°
2026-05-08 13:59 55.47266 14.27138 36278 ft 448 kts 332°
2026-05-08 14:00 55.52829 14.22146 36281 ft 448 kts 332°
2026-05-08 14:00 55.58388 14.17150 36287 ft 448 kts 332°
2026-05-08 14:01 55.63947 14.12137 36286 ft 449 kts 332°
2026-05-08 14:01 55.69499 14.07105 36285 ft 449 kts 332°
2026-05-08 14:02 55.75069 14.02039 36286 ft 449 kts 332°
2026-05-08 14:02 55.80629 13.96971 36290 ft 449 kts 332°
2026-05-08 14:03 55.86190 13.91898 36294 ft 450 kts 332°
2026-05-08 14:03 55.91752 13.86796 36292 ft 450 kts 332°
2026-05-08 14:04 55.97302 13.81683 36292 ft 450 kts 332°
2026-05-08 14:04 56.02864 13.76530 36289 ft 450 kts 332°
2026-05-08 14:05 56.08416 13.71388 36285 ft 450 kts 332°
2026-05-08 14:05 56.13939 13.66253 36276 ft 450 kts 332°
2026-05-08 14:06 56.19497 13.61072 36275 ft 450 kts 332°
2026-05-08 14:06 56.25054 13.55880 36269 ft 450 kts 332°
2026-05-08 14:07 56.30606 13.50670 36273 ft 450 kts 332°
2026-05-08 14:07 56.36153 13.45435 36272 ft 450 kts 332°
2026-05-08 14:08 56.41692 13.40188 36271 ft 450 kts 332°
2026-05-08 14:08 56.47241 13.34923 36266 ft 450 kts 332°
2026-05-08 14:09 56.52796 13.29641 36266 ft 451 kts 332°
2026-05-08 14:09 56.58497 13.24950 36272 ft 451 kts 338°
2026-05-08 14:10 56.64370 13.20887 36277 ft 452 kts 339°
2026-05-08 14:10 56.70251 13.16860 36280 ft 452 kts 339°
2026-05-08 14:11 56.76136 13.12794 36280 ft 452 kts 339°
2026-05-08 14:11 56.82020 13.08689 36279 ft 453 kts 339°
2026-05-08 14:12 56.87900 13.04572 36273 ft 453 kts 339°
2026-05-08 14:12 56.93789 13.00437 36268 ft 453 kts 339°
2026-05-08 14:13 56.99634 12.96316 36264 ft 453 kts 339°
2026-05-08 14:13 57.05568 12.92130 36258 ft 453 kts 339°
2026-05-08 14:14 57.11413 12.87988 36255 ft 454 kts 339°
2026-05-08 14:14 57.17301 12.83794 36245 ft 454 kts 339°
2026-05-08 14:15 57.23189 12.79591 36255 ft 454 kts 339°
2026-05-08 14:15 57.29068 12.75374 36260 ft 454 kts 339°
2026-05-08 14:16 57.34948 12.71149 36256 ft 454 kts 339°
2026-05-08 14:16 57.40829 12.66911 36260 ft 454 kts 339°
2026-05-08 14:17 57.45252 12.63732 36247 ft 454 kts 339°
2026-05-08 14:17 57.51132 12.59450 36262 ft 454 kts 338°
2026-05-08 14:18 57.57011 12.55151 36257 ft 454 kts 338°
2026-05-08 14:18 57.62892 12.50854 36268 ft 454 kts 338°
2026-05-08 14:19 57.68784 12.46542 36261 ft 455 kts 338°
2026-05-08 14:19 57.74670 12.42213 36255 ft 455 kts 338°
2026-05-08 14:20 57.80567 12.37850 36259 ft 455 kts 338°
2026-05-08 14:20 57.86452 12.33486 36253 ft 455 kts 338°
2026-05-08 14:21 57.92350 12.29106 36256 ft 456 kts 338°
2026-05-08 14:21 57.98238 12.24709 36255 ft 456 kts 338°
2026-05-08 14:22 58.04138 12.20283 36258 ft 456 kts 338°
2026-05-08 14:22 58.10043 12.15844 36258 ft 456 kts 338°
2026-05-08 14:23 58.15941 12.11407 36264 ft 456 kts 337°
2026-05-08 14:23 58.21839 12.06951 36263 ft 457 kts 337°
2026-05-08 14:24 58.27740 12.02458 36265 ft 457 kts 337°
2026-05-08 14:24 58.33637 11.97960 36260 ft 457 kts 337°
2026-05-08 14:25 58.39539 11.93442 36261 ft 457 kts 336°
2026-05-08 14:25 58.45443 11.88898 36261 ft 457 kts 336°
2026-05-08 14:26 58.51339 11.84371 36248 ft 457 kts 336°
2026-05-08 14:26 58.57215 11.79836 36252 ft 458 kts 336°
2026-05-08 14:27 58.63105 11.75251 36254 ft 458 kts 336°
2026-05-08 14:27 58.69052 11.70608 36257 ft 458 kts 336°
2026-05-08 14:27 58.71972 11.68326 35732 ft 461 kts 336°
2026-05-08 14:28 58.74978 11.65968 34824 ft 469 kts 336°
2026-05-08 14:28 58.78020 11.63578 33884 ft 476 kts 336°
2026-05-08 14:28 58.81126 11.61136 33261 ft 473 kts 336°
2026-05-08 14:28 58.84168 11.58748 32677 ft 470 kts 336°
2026-05-08 14:29 58.87149 11.56406 32102 ft 468 kts 336°
2026-05-08 14:29 58.90161 11.54036 31519 ft 466 kts 336°
2026-05-08 14:29 58.93150 11.51665 30943 ft 464 kts 336°
2026-05-08 14:29 58.96127 11.49295 30383 ft 461 kts 336°
2026-05-08 14:30 58.99086 11.46944 29751 ft 458 kts 336°
2026-05-08 14:30 59.02014 11.44616 29211 ft 453 kts 336°
2026-05-08 14:30 59.04917 11.42301 28654 ft 449 kts 336°
2026-05-08 14:30 59.07792 11.40002 28108 ft 444 kts 336°
2026-05-08 14:31 59.10623 11.37733 27572 ft 440 kts 336°
2026-05-08 14:31 59.13448 11.35462 27036 ft 436 kts 336°
2026-05-08 14:31 59.16314 11.33730 26834 ft 426 kts 348°
2026-05-08 14:32 59.22035 11.33924 26555 ft 402 kts 14°
2026-05-08 14:32 59.24679 11.35467 26265 ft 394 kts 18°
2026-05-08 14:32 59.27286 11.37102 25856 ft 391 kts 18°
2026-05-08 14:32 59.29854 11.38726 25444 ft 388 kts 18°
2026-05-08 14:33 59.32410 11.40349 25018 ft 386 kts 18°
2026-05-08 14:33 59.34969 11.41970 24618 ft 383 kts 18°
2026-05-08 14:33 59.37495 11.43569 24226 ft 381 kts 18°
2026-05-08 14:33 59.40007 11.45161 23821 ft 379 kts 18°
2026-05-08 14:34 59.42507 11.46750 23355 ft 376 kts 18°
2026-05-08 14:34 59.44988 11.48319 22905 ft 373 kts 18°
2026-05-08 14:34 59.47454 11.49871 22471 ft 371 kts 18°
2026-05-08 14:34 59.49899 11.51415 22037 ft 368 kts 18°
2026-05-08 14:35 59.52326 11.52953 21622 ft 365 kts 18°
2026-05-08 14:35 59.54735 11.54482 21214 ft 362 kts 18°
2026-05-08 14:35 59.57121 11.55997 20805 ft 360 kts 17°
2026-05-08 14:35 59.59502 11.57507 20399 ft 357 kts 17°
2026-05-08 14:36 59.61861 11.59004 19996 ft 355 kts 17°
2026-05-08 14:36 59.64202 11.60494 19603 ft 352 kts 17°
2026-05-08 14:36 59.66528 11.61981 19219 ft 350 kts 17°
2026-05-08 14:36 59.68837 11.63458 18842 ft 348 kts 17°
2026-05-08 14:37 59.70394 11.64455 18590 ft 347 kts 17°
2026-05-08 14:37 59.72651 11.65897 18176 ft 344 kts 17°
2026-05-08 14:37 59.74922 11.67352 17750 ft 342 kts 17°
2026-05-08 14:37 59.77187 11.68805 17342 ft 341 kts 17°
2026-05-08 14:38 59.79432 11.70248 16954 ft 339 kts 17°
2026-05-08 14:38 59.81669 11.71692 16568 ft 337 kts 17°
2026-05-08 14:38 59.83891 11.73128 16192 ft 335 kts 17°
2026-05-08 14:38 59.86104 11.74555 15823 ft 334 kts 17°
2026-05-08 14:39 59.88299 11.75977 15458 ft 332 kts 17°
2026-05-08 14:39 59.90491 11.77401 15089 ft 330 kts 17°
2026-05-08 14:39 59.92672 11.78819 14729 ft 329 kts 17°
2026-05-08 14:39 59.94833 11.80223 14377 ft 327 kts 17°
2026-05-08 14:40 59.96995 11.81621 14032 ft 325 kts 15°
2026-05-08 14:40 59.99194 11.82243 13759 ft 317 kts 355°
2026-05-08 14:40 60.01317 11.81376 13487 ft 309 kts 334°
2026-05-08 14:40 60.03247 11.79527 13219 ft 307 kts 330°
2026-05-08 14:41 60.05155 11.77622 12950 ft 307 kts 330°
2026-05-08 14:41 60.07054 11.75718 12682 ft 306 kts 330°
2026-05-08 14:41 60.08959 11.73811 12425 ft 303 kts 330°
2026-05-08 14:41 60.10812 11.71961 12224 ft 296 kts 330°
2026-05-08 14:42 60.12664 11.70105 11781 ft 298 kts 330°
2026-05-08 14:42 60.14503 11.68261 11468 ft 294 kts 330°
2026-05-08 14:42 60.16341 11.66413 11099 ft 294 kts 330°
2026-05-08 14:42 60.18158 11.64586 10686 ft 295 kts 330°
2026-05-08 14:43 60.19982 11.62750 10419 ft 291 kts 330°
2026-05-08 14:43 60.21804 11.60912 10029 ft 291 kts 330°
2026-05-08 14:43 60.23592 11.59110 9728 ft 284 kts 330°
2026-05-08 14:43 60.25343 11.57341 9128 ft 280 kts 330°
2026-05-08 14:44 60.27090 11.55568 8729 ft 281 kts 329°
2026-05-08 14:44 60.28837 11.53793 8341 ft 281 kts 330°
2026-05-08 14:44 60.30577 11.52028 7955 ft 280 kts 330°
2026-05-08 14:44 60.32304 11.50279 7565 ft 273 kts 330°
2026-05-08 14:45 60.33962 11.48601 7179 ft 260 kts 330°
2026-05-08 14:45 60.35559 11.46983 6809 ft 255 kts 329°
2026-05-08 14:45 60.37142 11.45369 6432 ft 256 kts 329°
2026-05-08 14:45 60.38700 11.43776 6082 ft 255 kts 329°
2026-05-08 14:46 60.40230 11.41891 5661 ft 248 kts 313°
2026-05-08 14:46 60.41187 11.39166 5287 ft 237 kts 287°
2026-05-08 14:46 60.41497 11.35982 4896 ft 227 kts 264°
2026-05-08 14:46 60.41229 11.32896 4487 ft 221 kts 251°
2026-05-08 14:47 60.40853 11.29902 4111 ft 221 kts 251°
2026-05-08 14:47 60.40393 11.26953 3782 ft 215 kts 240°
2026-05-08 14:47 60.39528 11.24554 3573 ft 209 kts 221°
2026-05-08 14:47 60.38345 11.22945 3497 ft 200 kts 203°
2026-05-08 14:48 60.37078 11.22121 3502 ft 185 kts 196°
2026-05-08 14:48 60.35867 11.21411 3521 ft 179 kts 197°
2026-05-08 14:48 60.34666 11.20707 3513 ft 178 kts 197°
2026-05-08 14:48 60.33472 11.20009 3420 ft 179 kts 197°
2026-05-08 14:49 60.32281 11.19315 3241 ft 179 kts 197°
2026-05-08 14:49 60.31093 11.18622 3011 ft 177 kts 197°
2026-05-08 14:49 60.29916 11.17936 2764 ft 175 kts 197°
2026-05-08 14:49 60.28739 11.17251 2533 ft 175 kts 197°
2026-05-08 14:50 60.27598 11.16588 2290 ft 166 kts 197°
2026-05-08 14:50 60.26537 11.15972 2085 ft 152 kts 197°
2026-05-08 14:50 60.25573 11.15412 1884 ft 139 kts 197°
2026-05-08 14:50 60.24653 11.14878 1680 ft 136 kts 197°
2026-05-08 14:51 60.23748 11.14353 1485 ft 136 kts 197°
2026-05-08 14:51 60.22851 11.13832 1293 ft 134 kts 197°
2026-05-08 14:51 60.21948 11.13309 1111 ft 134 kts 197°
2026-05-08 14:51 60.21058 11.12794 935 ft 132 kts 198°
2026-05-08 14:52 60.20174 11.12279 754 ft 132 kts 198°
2026-05-08 14:52 60.18667 11.11396 685 ft 69 kts 196°
2026-05-08 14:52 60.18485 11.11245 684 ft 18 kts 221°
2026-05-08 14:53 60.18437 11.11045 684 ft 16 kts 279°
2026-05-08 14:53 60.18465 11.10837 684 ft 15 kts 287°
2026-05-08 14:53 60.18537 11.10770 685 ft 11 kts 15°
2026-05-08 14:53 60.18626 11.10818 683 ft 16 kts 14°
2026-05-08 14:54 60.18746 11.10882 687 ft 20 kts 19°
2026-05-08 14:54 60.18895 11.10963 685 ft 24 kts 17°
2026-05-08 14:54 60.19054 11.11055 689 ft 22 kts 17°
2026-05-08 14:54 60.19151 11.11087 689 ft 12 kts 342°
2026-05-08 14:55 60.19186 11.10958 688 ft 11 kts 285°
2026-05-08 14:55 60.19206 11.10819 684 ft 10 kts 286°
2026-05-08 14:55 60.19226 11.10686 689 ft 10 kts 286°
2026-05-08 14:55 60.19244 11.10559 690 ft 9 kts 286°
2026-05-08 14:56 60.19275 11.10486 683 ft 5 kts 358°
2026-05-08 14:56 60.19303 11.10498 688 ft 1 kts 14°
2026-05-08 14:56 60.19306 11.10500 691 ft 0 kts 14°